This demonstration page uses our WeatherBlox Daily Observations layout. Learn more.

Left ArrowRight Arrow

39.08367, -84.50855

Hourly Observations for March 6, 2020

Temp ( °F °C ) Dew Point ( °F °C ) Humidity (%) Winds ( mph kmh ) Pressure ( in mb ) Visibility ( mi km ) Precip ( " mm )
12:53 am 00:53 Clear 47 8.3 27 -2.8 46 46 NW 8 13 29.97 1015 10 16 N/A
1:53 am 01:53 Cloudy 46 7.8 25 -3.9 44 44 NW 8 13 29.98 1015 10 16 N/A
2:53 am 02:53 Cloudy 45 7.2 26 -3.3 48 48 WNW 7 11 29.98 1015 10 16 N/A
3:53 am 03:53 Cloudy 44 6.7 27 -2.8 51 51 W 12 19 29.97 1015 10 16 N/A
4:53 am 04:53 Cloudy 42 5.6 29 -1.7 60 60 NW 12 19 29.99 1016 10 16 0.00 0.00
5:53 am 05:53 Cloudy with Light Rain 39 3.9 31 -0.6 73 73 WNW 17 28 30.03 1017 10 16 0.00 0.00
6:53 am 06:53 Cloudy with Light Rain 38 3.3 32 undefined 79 79 W 15 24 30.06 1018 10 16 0.00 0.00
7:53 am 07:53 Cloudy with Light Rain 37 2.8 33 0.6 86 86 W 13 20 30.08 1019 10 16 0.01 0.25
8:53 am 08:53 Cloudy 38 3.3 32 undefined 79 79 W 13 20 30.11 1020 10 16 0.00 0.00
9:53 am 09:53 Cloudy 38 3.3 32 undefined 79 79 WNW 10 17 30.14 1021 10 16 N/A
10:53 am 10:53 Cloudy 38 3.3 30 -1.1 73 73 NW 15 24 30.17 1022 10 16 N/A
11:53 am 11:53 Cloudy 37 2.8 28 -2.2 70 70 NW 13 20 30.21 1023 10 16 0.00 0.00
12:53 pm 12:53 Cloudy 38 3.3 28 -2.2 68 68 WNW 10 17 30.23 1024 10 16 N/A
1:53 pm 13:53 Cloudy 38 3.3 28 -2.2 68 68 WNW 16 26 30.23 1024 10 16 N/A
2:53 pm 14:53 Cloudy 38 3.3 29 -1.7 70 70 NW 12 19 30.26 1025 10 16 N/A
3:53 pm 15:53 Cloudy 39 3.9 29 -1.7 67 67 VRB 7 11 30.28 1026 10 16 N/A
4:53 pm 16:53 Cloudy 39 3.9 30 -1.1 70 70 WNW 16 26 30.31 1026 10 16 N/A
5:53 pm 17:53 Cloudy 39 3.9 30 -1.1 70 70 WNW 9 15 30.35 1028 10 16 N/A
6:53 pm 18:53 Cloudy with Light Rain 38 3.3 31 -0.6 76 76 VRB 7 11 30.37 1029 10 16 0.00 0.00
7:53 pm 19:53 Cloudy 38 3.3 28 -2.2 68 68 NNW 16 26 30.40 1029 10 16 0.00 0.00
8:53 pm 20:53 Cloudy 38 3.3 25 -3.9 60 60 NNW 13 20 30.42 1030 10 16 N/A
9:53 pm 21:53 Cloudy 37 2.8 27 -2.8 67 67 NW 13 20 30.44 1031 10 16 N/A
10:53 pm 22:53 Cloudy 36 2.2 27 -2.8 70 70 NW 10 17 30.46 1032 10 16 N/A
11:53 pm 23:53 Cloudy 36 2.2 26 -3.3 67 67 WNW 8 13 30.47 1032 10 16 N/A

Powered by AerisWeather